| time (UTC) | temp C | wind direction | speed KPH | gust KPH | rain 1hr cm | rain 24hr cm | rain mn cm | humidity % | barometer mb |
| 20260507093248 | 16 | 55 | 3.2 | 14.5 | 0.00 | 0.00 | 0.00 | 62 | 1015.4 |
| 20260507091249 | 15 | 86 | 8.0 | 16.1 | 0.00 | 0.00 | 0.00 | 58 | 1015.2 |
| 20260507090748 | 15 | 110 | 4.8 | 12.9 | 0.00 | 0.00 | 0.00 | 66 | 1015.1 |
| 20260507090249 | 15 | 97 | 8.0 | 16.1 | 0.00 | 0.00 | 0.00 | 62 | 1015.1 |
| 20260507084748 | 15 | 90 | 11.3 | 19.3 | 0.00 | 0.00 | 0.00 | 62 | 1015.0 |
| 20260507084249 | 15 | 94 | 4.8 | 12.9 | 0.00 | 0.00 | 0.00 | 65 | 1015.0 |
| 20260507083748 | 15 | 74 | 3.2 | 12.9 | 0.00 | 0.00 | 0.00 | 67 | 1015.0 |
| 20260507083249 | 14 | 96 | 4.8 | 19.3 | 0.00 | 0.00 | 0.00 | 67 | 1014.9 |
| 20260507081749 | 14 | 105 | 6.4 | 12.9 | 0.00 | 0.00 | 0.00 | 71 | 1014.8 |
| 20260507080749 | 14 | 98 | 4.8 | 14.5 | 0.00 | 0.00 | 0.00 | 70 | 1014.8 |
| 20260507080249 | 13 | 76 | 3.2 | 16.1 | 0.00 | 0.00 | 0.00 | 69 | 1014.7 |
| 20260507074749 | 13 | 42 | 9.7 | 16.1 | 0.00 | 0.00 | 0.00 | 67 | 1014.6 |
| 20260507074249 | 13 | 102 | 4.8 | 12.9 | 0.00 | 0.00 | 0.00 | 70 | 1014.5 |
| 20260507073749 | 13 | 66 | 3.2 | 11.3 | 0.00 | 0.00 | 0.00 | 72 | 1014.4 |
| 20260507073249 | 13 | 102 | 4.8 | 12.9 | 0.00 | 0.00 | 0.00 | 70 | 1014.4 |
| 20260507071749 | 12 | 85 | 4.8 | 12.9 | 0.00 | 0.00 | 0.00 | 74 | 1014.4 |
| 20260507071249 | 12 | 47 | 3.2 | 11.3 | 0.00 | 0.00 | 0.00 | 73 | 1014.4 |
| 20260507070749 | 12 | 79 | 4.8 | 12.9 | 0.00 | 0.00 | 0.00 | 74 | 1014.3 |
| 20260507070249 | 12 | 99 | 8.0 | 14.5 | 0.00 | 0.00 | 0.00 | 74 | 1014.3 |
| 20260507064750 | 12 | 73 | 3.2 | 11.3 | 0.00 | 0.00 | 0.00 | 83 | 1014.2 |
| 20260507064249 | 12 | 66 | 3.2 | 8.0 | 0.00 | 0.00 | 0.00 | 85 | 1014.2 |
| 20260507063749 | 11 | 65 | 4.8 | 16.1 | 0.00 | 0.00 | 0.00 | 87 | 1014.1 |
| 20260507063249 | 11 | 55 | 3.2 | 14.5 | 0.00 | 0.00 | 0.00 | 90 | 1014.0 |
| 20260507061749 | 9 | 108 | 6.4 | 12.9 | 0.00 | 0.00 | 0.00 | 93 | 1013.9 |
| 20260507061249 | 9 | 103 | 3.2 | 11.3 | 0.00 | 0.00 | 0.00 | 93 | 1013.9 |
| 20260507060750 | 8 | 119 | 4.8 | 12.9 | 0.00 | 0.00 | 0.00 | 93 | 1013.8 |
| 20260507060249 | 8 | 98 | 4.8 | 11.3 | 0.00 | 0.00 | 0.00 | 93 | 1013.8 |
| 20260507054749 | 7 | 93 | 1.6 | 4.8 | 0.00 | 0.00 | 0.00 | 93 | 1013.8 |
| 20260507054249 | 7 | 82 | 1.6 | 9.7 | 0.00 | 0.00 | 0.00 | 93 | 1013.8 |
| 20260507053249 | 7 | 49 | 1.6 | 8.0 | 0.00 | 0.00 | 0.00 | 93 | 1013.6 |
| 20260507051749 | 6 | 94 | 1.6 | 8.0 | 0.00 | 0.00 | 0.00 | 93 | 1013.5 |
| 20260507051251 | 6 | 92 | 1.6 | 8.0 | 0.00 | 0.00 | 0.00 | 93 | 1013.4 |
| 20260507050750 | 6 | 101 | 1.6 | 4.8 | 0.00 | 0.00 | 0.00 | 93 | 1013.4 |
| 20260507050249 | 6 | 102 | 1.6 | 11.3 | 0.00 | 0.00 | 0.00 | 93 | 1013.4 |
| 20260507044750 | 6 | 66 | 1.6 | 4.8 | 0.00 | 0.00 | 0.00 | 93 | 1013.2 |
| 20260507044249 | 6 | 90 | 0.0 | 4.8 | 0.00 | 0.00 | 0.00 | 93 | 1013.2 |
| 20260507043749 | 6 | 93 | 1.6 | 11.3 | 0.00 | 0.00 | 0.00 | 93 | 1013.1 |
| 20260507041749 | 6 | 95 | 3.2 | 8.0 | 0.00 | 0.00 | 0.00 | 92 | 1013.0 |
| 20260507041249 | 6 | 97 | 3.2 | 4.8 | 0.00 | 0.00 | 0.00 | 93 | 1012.9 |
| 20260507040750 | 6 | 98 | 3.2 | 11.3 | 0.00 | 0.00 | 0.00 | 93 | 1012.9 |
| 20260507034750 | 5 | 76 | 3.2 | 8.0 | 0.00 | 0.00 | 0.00 | 92 | 1012.8 |
| 20260507034250 | 5 | 93 | 1.6 | 11.3 | 0.00 | 0.00 | 0.00 | 92 | 1012.7 |
| 20260507033249 | 5 | 97 | 1.6 | 8.0 | 0.00 | 0.00 | 0.00 | 92 | 1012.6 |
| 20260507031250 | 5 | 107 | 1.6 | 11.3 | 0.00 | 0.00 | 0.00 | 92 | 1012.6 |
| 20260507030750 | 5 | 105 | 1.6 | 11.3 | 0.00 | 0.00 | 0.00 | 92 | 1012.5 |
| 20260507024750 | 5 | 61 | 1.6 | 8.0 | 0.00 | 0.00 | 0.00 | 92 | 1012.4 |
| 20260507024250 | 5 | 94 | 1.6 | 4.8 | 0.00 | 0.00 | 0.00 | 92 | 1012.4 |
| 20260507023750 | 6 | 99 | 3.2 | 12.9 | 0.00 | 0.00 | 0.00 | 92 | 1012.4 |
| 20260507023250 | 6 | 56 | 1.6 | 11.3 | 0.00 | 0.00 | 0.00 | 92 | 1012.3 |
| 20260507021750 | 6 | 85 | 3.2 | 12.9 | 0.00 | 0.00 | 0.00 | 92 | 1012.3 |
| 20260507020750 | 6 | 84 | 4.8 | 11.3 | 0.00 | 0.00 | 0.00 | 92 | 1012.2 |
| 20260507020250 | 6 | 98 | 3.2 | 11.3 | 0.00 | 0.00 | 0.00 | 91 | 1012.2 |
| 20260507014750 | 6 | 62 | 3.2 | 8.0 | 0.00 | 0.00 | 0.00 | 92 | 1012.1 |
| 20260507014250 | 6 | 96 | 3.2 | 11.3 | 0.00 | 0.00 | 0.00 | 92 | 1012.1 |
| 20260507013750 | 6 | 101 | 1.6 | 8.0 | 0.00 | 0.00 | 0.00 | 91 | 1012.1 |
| 20260507013250 | 6 | 97 | 4.8 | 12.9 | 0.00 | 0.00 | 0.00 | 91 | 1012.0 |
| 20260507011750 | 6 | 99 | 3.2 | 11.3 | 0.00 | 0.00 | 0.00 | 91 | 1012.0 |
| 20260507011250 | 6 | 23 | 1.6 | 11.3 | 0.00 | 0.00 | 0.00 | 91 | 1012.0 |
| 20260507010750 | 6 | 72 | 3.2 | 8.0 | 0.00 | 0.00 | 0.00 | 91 | 1012.0 |
| 20260507004751 | 6 | 38 | 3.2 | 8.0 | 0.00 | 0.00 | 0.00 | 91 | 1011.9 |
| 20260507004251 | 6 | 24 | 3.2 | 11.3 | 0.00 | 0.00 | 0.00 | 91 | 1011.9 |
| 20260507003250 | 6 | 101 | 3.2 | 11.3 | 0.00 | 0.00 | 0.00 | 90 | 1011.8 |
| 20260507001750 | 6 | 76 | 3.2 | 8.0 | 0.00 | 0.00 | 0.00 | 90 | 1011.7 |
| 20260507001250 | 6 | 51 | 3.2 | 12.9 | 0.00 | 0.00 | 0.00 | 90 | 1011.7 |
| 20260507000251 | 6 | 88 | 1.6 | 12.9 | 0.00 | 0.00 | 0.00 | 90 | 1011.7 |
| 20260506234751 | 6 | 74 | 3.2 | 11.3 | 0.00 | 0.00 | 0.00 | 90 | 1011.7 |
| 20260506234250 | 6 | 86 | 3.2 | 11.3 | 0.00 | 0.00 | 0.00 | 90 | 1011.7 |
| 20260506233251 | 6 | 87 | 3.2 | 14.5 | 0.00 | 0.00 | 0.00 | 90 | 1011.7 |
| 20260506231750 | 6 | 71 | 3.2 | 12.9 | 0.00 | 0.00 | 0.00 | 90 | 1011.6 |
| 20260506231251 | 6 | 72 | 3.2 | 11.3 | 0.00 | 0.00 | 0.00 | 90 | 1011.6 |
| 20260506224751 | 7 | 96 | 4.8 | 12.9 | 0.00 | 0.00 | 0.00 | 89 | 1011.5 |
| 20260506224251 | 7 | 87 | 3.2 | 11.3 | 0.00 | 0.00 | 0.00 | 89 | 1011.4 |
| 20260506223751 | 7 | 80 | 4.8 | 11.3 | 0.00 | 0.00 | 0.00 | 89 | 1011.4 |
| 20260506223250 | 7 | 97 | 1.6 | 14.5 | 0.00 | 0.00 | 0.00 | 89 | 1011.4 |
| 20260506221751 | 7 | 103 | 4.8 | 11.3 | 0.00 | 0.00 | 0.00 | 89 | 1011.3 |
| 20260506220251 | 7 | 78 | 1.6 | 16.1 | 0.00 | 0.00 | 0.00 | 88 | 1011.3 |
| 20260506214251 | 7 | 84 | 3.2 | 14.5 | 0.00 | 0.00 | 0.00 | 88 | 1011.2 |
| 20260506213751 | 7 | 89 | 3.2 | 20.9 | 0.00 | 0.00 | 0.00 | 88 | 1011.2 |
| 20260506213251 | 7 | 46 | 4.8 | 16.1 | 0.00 | 0.00 | 0.00 | 88 | 1011.1 |
| 20260506211751 | 8 | 98 | 4.8 | 14.5 | 0.00 | 0.00 | 0.00 | 87 | 1011.1 |
| 20260506211251 | 8 | 95 | 9.7 | 19.3 | 0.00 | 0.00 | 0.00 | 87 | 1011.0 |
| 20260506210751 | 8 | 61 | 4.8 | 16.1 | 0.00 | 0.00 | 0.00 | 87 | 1010.9 |
| 20260506210251 | 8 | 116 | 6.4 | 24.1 | 0.00 | 0.00 | 0.00 | 87 | 1010.9 |
| 20260506204252 | 8 | 97 | 9.7 | 19.3 | 0.00 | 0.00 | 0.00 | 86 | 1010.8 |
| 20260506203751 | 8 | 78 | 8.0 | 20.9 | 0.00 | 0.00 | 0.00 | 86 | 1010.7 |
| 20260506203251 | 8 | 53 | 4.8 | 25.7 | 0.00 | 0.00 | 0.00 | 86 | 1010.7 |
| 20260506201251 | 8 | 92 | 8.0 | 14.5 | 0.00 | 0.00 | 0.00 | 85 | 1010.6 |
| 20260506200751 | 8 | 78 | 9.7 | 20.9 | 0.00 | 0.00 | 0.00 | 84 | 1010.6 |
| 20260506200252 | 9 | 57 | 8.0 | 24.1 | 0.00 | 0.00 | 0.00 | 84 | 1010.5 |
| 20260506194751 | 9 | 101 | 9.7 | 24.1 | 0.00 | 0.00 | 0.00 | 82 | 1010.4 |
| 20260506194251 | 9 | 93 | 9.7 | 24.1 | 0.00 | 0.00 | 0.00 | 82 | 1010.4 |
| 20260506193751 | 9 | 90 | 12.9 | 22.5 | 0.00 | 0.00 | 0.00 | 82 | 1010.4 |
| 20260506193252 | 9 | 87 | 8.0 | 22.5 | 0.00 | 0.00 | 0.00 | 81 | 1010.4 |
| 20260506191751 | 10 | 77 | 6.4 | 14.5 | 0.00 | 0.00 | 0.00 | 80 | 1010.2 |
| 20260506191251 | 10 | 113 | 9.7 | 20.9 | 0.00 | 0.00 | 0.00 | 80 | 1010.1 |
| 20260506190751 | 10 | 111 | 8.0 | 19.3 | 0.00 | 0.00 | 0.00 | 80 | 1010.0 |
| 20260506190252 | 10 | 88 | 14.5 | 24.1 | 0.00 | 0.00 | 0.00 | 80 | 1009.9 |
| 20260506184751 | 10 | 88 | 11.3 | 20.9 | 0.00 | 0.00 | 0.00 | 79 | 1009.8 |
| 20260506184252 | 10 | 112 | 8.0 | 14.5 | 0.00 | 0.00 | 0.00 | 79 | 1009.8 |
| 20260506183252 | 10 | 98 | 9.7 | 22.5 | 0.00 | 0.00 | 0.00 | 79 | 1009.7 |
| 20260506181751 | 11 | 104 | 9.7 | 19.3 | 0.00 | 0.00 | 0.00 | 78 | 1009.5 |
| 20260506180252 | 11 | 90 | 3.2 | 14.5 | 0.00 | 0.00 | 0.00 | 76 | 1009.2 |
| 20260506174752 | 11 | 76 | 4.8 | 11.3 | 0.00 | 0.00 | 0.00 | 74 | 1009.2 |
| 20260506174251 | 11 | 51 | 3.2 | 14.5 | 0.00 | 0.00 | 0.00 | 73 | 1009.1 |
| 20260506173752 | 11 | 26 | 3.2 | 12.9 | 0.00 | 0.00 | 0.00 | 72 | 1009.1 |
| 20260506173252 | 12 | 61 | 4.8 | 16.1 | 0.00 | 0.00 | 0.00 | 71 | 1009.1 |
| 20260506171752 | 12 | 76 | 3.2 | 11.3 | 0.00 | 0.00 | 0.00 | 70 | 1008.9 |
| 20260506171251 | 12 | 65 | 3.2 | 11.3 | 0.00 | 0.00 | 0.00 | 69 | 1008.9 |
| 20260506170752 | 12 | 33 | 4.8 | 16.1 | 0.00 | 0.00 | 0.00 | 69 | 1008.9 |
| 20260506164752 | 13 | 27 | 6.4 | 16.1 | 0.00 | 0.00 | 0.00 | 67 | 1008.8 |
| 20260506164252 | 13 | 67 | 4.8 | 12.9 | 0.00 | 0.00 | 0.00 | 68 | 1008.8 |
| 20260506163752 | 13 | 55 | 4.8 | 12.9 | 0.00 | 0.00 | 0.00 | 66 | 1008.8 |
| 20260506163252 | 13 | 40 | 4.8 | 14.5 | 0.00 | 0.00 | 0.00 | 64 | 1008.8 |
| 20260506161752 | 14 | 74 | 4.8 | 14.5 | 0.00 | 0.00 | 0.00 | 63 | 1008.8 |
| 20260506161252 | 15 | 105 | 4.8 | 16.1 | 0.00 | 0.00 | 0.00 | 63 | 1008.7 |
| 20260506160752 | 14 | 37 | 4.8 | 14.5 | 0.00 | 0.00 | 0.00 | 63 | 1008.8 |
| 20260506160252 | 14 | 48 | 4.8 | 12.9 | 0.00 | 0.00 | 0.00 | 62 | 1008.7 |
| 20260506154752 | 14 | 36 | 3.2 | 11.3 | 0.00 | 0.00 | 0.00 | 59 | 1008.8 |
| 20260506154252 | 15 | 60 | 4.8 | 11.3 | 0.00 | 0.00 | 0.00 | 57 | 1008.8 |
| 20260506153752 | 14 | 32 | 6.4 | 14.5 | 0.00 | 0.00 | 0.00 | 55 | 1008.8 |
| 20260506153252 | 14 | 37 | 4.8 | 22.5 | 0.00 | 0.00 | 0.00 | 56 | 1008.8 |
| 20260506151752 | 15 | 33 | 4.8 | 14.5 | 0.00 | 0.00 | 0.00 | 55 | 1008.8 |
| 20260506150752 | 15 | 23 | 4.8 | 19.3 | 0.00 | 0.00 | 0.00 | 55 | 1008.8 |
| 20260506150252 | 14 | 48 | 4.8 | 19.3 | 0.00 | 0.00 | 0.00 | 53 | 1008.8 |
| 20260506144752 | 14 | 37 | 4.8 | 14.5 | 0.00 | 0.00 | 0.00 | 53 | 1008.8 |
| 20260506144252 | 14 | 18 | 4.8 | 20.9 | 0.00 | 0.00 | 0.00 | 52 | 1008.8 |
| 20260506143253 | 15 | 45 | 4.8 | 14.5 | 0.00 | 0.00 | 0.00 | 58 | 1008.8 |
| 20260506141752 | 15 | 36 | 4.8 | 12.9 | 0.00 | 0.00 | 0.00 | 56 | 1008.9 |
| 20260506141252 | 15 | 11 | 4.8 | 19.3 | 0.00 | 0.00 | 0.00 | 53 | 1008.9 |
| 20260506140752 | 15 | 8 | 3.2 | 11.3 | 0.00 | 0.00 | 0.00 | 56 | 1008.8 |
| 20260506140253 | 15 | 31 | 4.8 | 12.9 | 0.00 | 0.00 | 0.00 | 54 | 1008.8 |
| 20260506134752 | 15 | 55 | 4.8 | 14.5 | 0.00 | 0.00 | 0.00 | 56 | 1008.8 |
| 20260506134253 | 15 | 22 | 8.0 | 14.5 | 0.00 | 0.00 | 0.00 | 51 | 1008.8 |
| 20260506133752 | 15 | 79 | 4.8 | 12.9 | 0.00 | 0.00 | 0.00 | 55 | 1008.8 |
| 20260506133252 | 15 | 50 | 8.0 | 14.5 | 0.00 | 0.00 | 0.00 | 53 | 1008.8 |
| 20260506131753 | 15 | 14 | 4.8 | 16.1 | 0.00 | 0.00 | 0.00 | 54 | 1008.6 |
| 20260506130752 | 15 | 18 | 8.0 | 19.3 | 0.00 | 0.00 | 0.00 | 52 | 1008.6 |
| 20260506124752 | 15 | 0 | 4.8 | 16.1 | 0.00 | 0.00 | 0.00 | 53 | 1008.5 |
| 20260506123753 | 16 | 17 | 3.2 | 14.5 | 0.00 | 0.00 | 0.00 | 56 | 1008.4 |
| 20260506123254 | 15 | 36 | 8.0 | 19.3 | 0.00 | 0.00 | 0.00 | 54 | 1008.4 |
| 20260506121252 | 16 | 45 | 6.4 | 20.9 | 0.00 | 0.00 | 0.00 | 51 | 1008.3 |
| 20260506120753 | 16 | 40 | 8.0 | 22.5 | 0.00 | 0.00 | 0.00 | 56 | 1008.3 |
| 20260506120252 | 16 | 17 | 8.0 | 20.9 | 0.00 | 0.00 | 0.00 | 54 | 1008.3 |
| 20260506114253 | 16 | 34 | 9.7 | 22.5 | 0.00 | 0.00 | 0.00 | 53 | 1008.5 |
| 20260506111753 | 15 | 38 | 8.0 | 22.5 | 0.00 | 0.00 | 0.00 | 53 | 1008.6 |
| 20260506111253 | 15 | 30 | 4.8 | 14.5 | 0.00 | 0.00 | 0.00 | 54 | 1008.6 |
| 20260506110753 | 15 | 46 | 8.0 | 20.9 | 0.00 | 0.00 | 0.00 | 55 | 1008.6 |
| 20260506110253 | 15 | 51 | 9.7 | 24.1 | 0.00 | 0.00 | 0.00 | 52 | 1008.7 |
| 20260506104753 | 16 | 43 | 9.7 | 20.9 | 0.00 | 0.00 | 0.00 | 52 | 1008.7 |
| 20260506104253 | 16 | 30 | 4.8 | 22.5 | 0.00 | 0.00 | 0.00 | 56 | 1008.8 |
| 20260506103753 | 15 | 21 | 12.9 | 24.1 | 0.00 | 0.00 | 0.00 | 52 | 1008.8 |
| 20260506101254 | 15 | 46 | 8.0 | 25.7 | 0.00 | 0.00 | 0.00 | 54 | 1008.9 |
| 20260506100753 | 14 | 43 | 9.7 | 24.1 | 0.00 | 0.00 | 0.00 | 53 | 1009.0 |
| 20260506100253 | 14 | 16 | 8.0 | 22.5 | 0.00 | 0.00 | 0.00 | 56 | 1009.0 |
| 20260506094753 | 14 | 32 | 6.4 | 20.9 | 0.00 | 0.00 | 0.00 | 56 | 1009.0 |
| 20260506094253 | 13 | 21 | 8.0 | 20.9 | 0.00 | 0.00 | 0.00 | 55 | 1009.0 |